User: anonymous   Login
Location: Unspecified
(35.6961°N, 0.0000°E)
Time: 14:51:25
(UTC+00:00)
Language:

AAUSAT CUBESAT 2 - Orbit

View from above orbital plane
View from above orbital plane
View from above satellite
View from above satellite

Ground track
Ground track

The orbit data is extracted from the following two-line orbital elements,

1 32788U 08021F   19167.03879224  .00000251  00000-0  28111-4 0  9993
2 32788  97.4965 182.8884 0011112 201.4625 158.6132 14.94722519604522
Epoch (UTC): 16 June 2019 00:55:51
Eccentricity: 0.0011112
inclination: 97.4965°
perigee height: 575 km
apogee height: 591 km
right ascension of ascending node: 182.8884°
argument of perigee: 201.4625°
revolutions per day: 14.94722519
mean anomaly at epoch: 158.6132°
orbit number at epoch: 60452

The dashed part of the orbit path shows where the satellite is in the earth's shadow,  

DLR